Location: Biberach+an+der+Riss
(48.0937°N, 9.7888°E)
Time: 04:23:54
(UTC+02:00)

ISS - Pass Details

Date: 04 October 2020
Orbit: 418 x 420 km, 51.6° (Epoch: 20 October)

Event Time Altitude Azimuth Distance (km) Brightness Sun altitude
Rises 20:19:47 0° 291° (WNW) 2,369 1.8 -15.2°
Reaches altitude 10° 20:21:59 10° 282° (WNW) 1,503 0.4 -15.6°
Maximum altitude 20:25:06 36° 215° (SW) 680 -2.5 -16.1°
Enters shadow 20:26:45 22° 162° (SSE) 976 -2.2 -16.4°
